SCP
-0 -0 -0 -0 -0 -0 -0 -0 -0 0 0 -0 -0 -0 -0 0 0 -0 0 0 0 0 0 0 -0 0 0 0 0 0 0 0 0 0 0 0 0 0 0 -0 0 0 0 0 -0
-0 -0 -0 -0 -0 -0 -0 -0 -0 0 0 0 -0 -0 -0 0 -0 0 0 0 0 -0 0 0 0 0 0 0 -0 -0 0 0 0 0 0 0 0 -0 0 0 0 0 -0 -0 -0
-0 -0 -0 -0 -0 -0 -0 -0 -0 -0 -0 0 0 -0 -0 0 0 0 0 0 0 0 0 0 0 0 0 0 -0 -0 0 0 0 0 0 0 0 0 -0 0 0 -0 -0 -0 -0
-0 -0 -0 -0 -0 -0 -0 -0 -0 -0 -0 0 0 -0 -0 -0 0 0 1 0 0 0 0 0 0 0 0 0 0 0 0 0 0 0 0 0 0 -0 0 0 0 -0 -0 -0 -0
-0 -0 -0 -0 -0 -0 -0 -0 -0 -0 -0 -0 0 0 0 0 0 0 0 0 0 0 0 0 0 0 0 0 0 0 0 0 0 0 -0 0 0 0 0 0 0 -0 -0 -0 -0
-0 -0 -0 -0 -0 -0 -0 -0 -0 -0 -0 -0 0 0 0 0 0 0 0 0 0 0 0 0 0 0 0 -0 0 0 0 0 0 0 0 -0 -0 0 0 0 0 0 0 0 -0
0 -0 -0 -0 -0 -0 -0 -0 -0 -0 -0 -0 0 0 0 0 0 0 0 0 0 0 0 0 0 -0 0 0 0 0 0 0 0 0 0 0 0 0 0 -0 0 0 0 0 -0
-0 -0 -0 -0 -0 -0 -0 -0 -0 -0 -0 0 0 0 -0 -0 0 0 0 0 0 0 0 0 0 0 0 0 0 0 0 0 0 0 0 -0 0 0 0 0 0 0 0 0 0
-0 -0 -0 -0 -0 -0 -0 -0 -0 0 0 0 0 0 -0 0 0 0 0 0 0 0 0 0 0 0 0 0 0 0 0 0 0 0 0 -0 0 0 0 0 0 0 0 0 0
-0 -0 -0 -0 -0 -0 -0 -0 0 0 0 0 0 0 0 0 0 0 0 0 0 0 0 0 0 0 0 0 0 0 0 0 0 0 0 0 0 0 0 0 0 0 0 -0 -0
-0 -0 -0 -0 -0 -0 0 0 0 0 0 0 0 0 0 0 0 0 0 0 0 0 0 0 0 0 0 0 0 0 0 0 0 0 0 0 0 -0 0 0 0 0 0 -0 0
0 -0 -0 -0 -0 -0 0 0 0 0 -0 -0 -0 -0 0 -0 0 0 0 0 0 0 0 0 0 0 0 -0 -0 0 0 0 0 0 0 0 0 0 0 -0 0 -0 0 -0 -0
0 0 0 -0 -0 -0 0 0 0 0 0 -0 0 -0 0 0 0 0 0 0 0 0 0 0 0 0 0 0 0 0 0 0 0 0 0 0 0 0 0 -0 -0 -0 -0 -0 -0
0 0 0 -0 0 0 0 0 0 0 0 0 0 -0 -0 0 -0 0 0 0 0 0 0 0 0 0 0 0 0 0 0 0 0 0 0 0 -0 -0 -0 0 -0 -0 -0 -0 -0
0 0 0 0 0 0 0 0 0 0 0 0 0 0 0 0 0 0 0 0 0 0 0 0 0 0 0 0 0 0 0 0 0 0 -0 0 -0 -0 0 0 0 -0 -0 -0 -0
0 0 0 -0 0 0 0 0 0 0 0 0 0 0 0 0 0 0 0 0 0 0 0 0 0 0 0 0 0 0 0 0 0 0 0 0 0 -0 -0 -0 0 -0 -0 -0 -0
-0 0 0 0 0 0 0 0 0 0 0 0 0 -0 0 0 0 0 0 0 0 0 0 0 0 0 0 0 0 0 0 0 0 0 0 0 0 0 0 0 -0 -0 -0 -0 -0
-0 -0 0 0 0 0 0 0 0 0 -0 0 0 0 0 0 0 0 0 0 0 0 0 0 0 0 0 0 0 0 0 0 0 0 0 0 0 0 0 0 0 0 -0 0 0
-0 0 0 0 0 0 0 0 0 0 0 0 0 -0 0 0 0 0 0 0 0 0 0 0 0 0 0 0 0 0 0 0 0 0 0 0 0 0 0 0 0 0 0 0 0
0 0 0 0 0 0 0 0 0 0 0 0 0 0 0 0 0 0 0 0 0 0 0 0 0 0 0 0 0 0 0 0 0 0 0 0 0 0 0 0 0 0 0 0 0
0 0 0 0 0 0 0 0 0 0 -0 0 0 0 0 0 0 0 0 0 0 0 0 0 0 0 0 0 0 0 0 0 0 0 -0 -0 0 0 -0 0 0 0 0 0 0
0 0 0 0 0 0 0 0 0 0 0 -0 -0 -0 0 0 0 0 0 0 0 0 0 0 0 0 0 0 0 0 0 0 0 0 0 0 0 0 0 0 0 0 0 0 0
0 0 0 0 0 0 0 0 0 0 0 -0 -0 -0 0 0 0 0 0 0 0 0 0 0 0 0 0 0 0 0 0 0 0 0 0 0 0 0 0 0 -0 0 1 1 0
0 0 0 0 0 0 0 0 0 0 0 0 0 0 0 0 0 0 0 0 0 0 0 0 0 0 0 0 0 0 0 0 0 0 0 0 0 0 0 0 0 0 1 1 0
0 0 0 0 0 0 0 0 0 0 0 0 0 0 0 0 0 0 0 0 0 0 0 0 0 0 0 0 0 0 0 0 0 0 0 0 0 0 0 0 0 2 1 0 0
0 0 0 0 0 0 0 0 0 0 0 0 0 0 0 0 0 0 0 -0 0 0 0 0 0 0 0 0 0 0 0 0 0 0 0 0 0 -0 -0 1 2 1 0 0 0
0 0 0 0 0 0 0 0 0 0 0 0 0 0 0 0 0 0 0 0 -0 0 0 0 0 0 0 0 0 0 0 0 0 0 0 0 -0 0 0 1 1 0 1 1 0
Wind_Speed_500mb
22 23 23 24 26 28 29 30 28 29 30 30 30 31 32 32 32 33 37 21 9 8 11 1 4 7 9 7 7 3 6 4 11 17 15 15 7 27 15 46 17 19 25 51 68
26 27 27 27 28 29 30 31 30 30 31 31 31 31 33 34 35 33 25 23 20 13 12 11 6 21 9 7 6 8 5 2 5 14 16 18 14 41 15 34 3 17 19 77 75
29 29 30 31 30 31 32 31 32 31 31 31 31 31 31 31 32 5 4 15 25 24 13 11 12 12 11 6 8 3 2 6 3 13 27 20 5 13 42 11 23 61 74 84 80
32 32 33 34 34 34 33 33 33 32 32 32 30 31 29 24 7 3 11 2 25 25 14 19 11 7 7 10 4 5 18 15 14 10 13 14 20 3 21 16 41 56 88 90 86
35 35 34 35 36 36 35 34 34 33 33 32 29 30 27 15 33 19 23 10 20 26 22 23 12 11 6 7 6 6 7 30 26 36 32 27 29 10 18 22 43 68 85 86 84
37 38 38 38 38 38 37 36 34 34 34 32 29 28 22 13 17 10 5 12 18 26 28 22 8 12 18 6 7 17 30 28 33 51 24 14 5 30 21 46 62 75 75 75 77
39 39 38 40 41 42 40 37 36 34 34 32 29 28 30 48 14 16 0 11 17 23 29 24 12 12 13 10 21 17 17 22 23 16 5 28 5 5 44 54 67 63 67 67 66
41 41 40 40 42 44 42 38 38 36 34 30 27 25 30 35 31 47 31 30 30 23 27 18 18 8 12 6 4 2 4 9 10 17 6 11 11 10 53 59 52 57 62 67 74
41 42 42 42 43 45 43 38 39 36 31 25 22 18 29 18 31 35 39 36 25 27 28 19 22 7 11 6 5 9 7 7 13 2 4 5 3 20 51 47 48 54 59 67 79
41 42 42 42 43 47 41 38 36 30 23 17 21 9 37 12 8 7 35 37 28 24 30 23 12 8 7 3 8 13 6 4 7 5 10 5 8 21 41 42 44 51 58 64 77
44 42 42 41 42 45 41 25 13 3 10 18 13 25 24 5 16 17 9 28 35 18 13 24 10 19 33 31 37 32 7 6 7 6 7 5 8 21 34 34 32 44 53 66 76
45 46 43 38 41 41 39 19 10 13 24 36 44 58 61 48 23 32 18 15 14 14 14 8 16 31 24 42 38 28 22 12 8 9 10 8 11 19 32 48 56 56 58 70 79
45 46 45 39 39 38 28 11 8 35 12 26 49 54 60 35 32 55 20 18 9 13 12 14 10 9 19 16 11 3 16 11 9 5 6 3 13 9 19 50 59 65 74 66 83
42 43 45 39 27 15 17 4 25 25 5 15 12 21 36 31 14 48 41 17 8 22 14 10 10 12 9 13 15 7 12 6 8 9 2 9 9 11 10 30 41 63 66 82 81
46 42 41 37 32 30 13 23 22 13 6 6 9 2 29 35 12 25 42 24 16 11 13 11 12 21 11 11 14 12 6 8 8 9 7 3 5 13 8 14 31 48 76 82 87
48 45 45 37 40 24 15 11 13 10 13 12 11 8 13 16 13 11 20 28 35 12 6 11 3 7 15 6 2 10 7 4 7 7 5 7 11 13 6 11 15 48 74 78 77
52 43 45 42 32 9 11 5 8 7 11 10 2 9 7 9 12 10 11 11 14 11 6 6 4 5 2 8 8 7 9 6 9 7 10 6 8 18 19 16 20 38 70 78 81
53 43 38 42 27 23 8 8 8 7 13 11 9 3 16 10 11 12 12 9 5 9 8 12 5 16 10 11 12 2 8 10 13 10 7 5 8 12 9 40 39 53 62 53 56
51 39 32 26 27 25 12 5 16 13 9 15 17 12 12 3 10 9 16 14 17 17 18 12 12 2 13 10 17 7 7 1 13 10 5 6 14 16 10 10 10 31 42 48 55
53 33 13 14 26 39 8 11 10 9 11 10 10 8 10 9 4 15 16 12 13 21 12 16 5 9 8 14 11 14 12 4 5 10 8 8 10 10 11 6 14 18 38 44 42
28 14 20 23 43 30 9 14 10 22 10 10 6 8 6 8 9 9 17 11 17 14 21 13 10 8 10 10 18 5 9 6 1 7 10 5 12 16 15 14 15 13 36 57 52
14 6 10 55 9 5 6 13 2 4 3 7 6 18 13 8 9 10 19 14 25 19 19 20 13 10 12 5 7 6 11 13 10 12 6 2 14 9 20 17 32 45 44 45 56
20 11 21 2 5 4 11 7 10 10 19 9 7 8 2 5 6 15 9 10 9 13 20 14 5 7 8 10 6 8 11 11 8 7 15 12 17 3 12 13 31 41 47 57 58
14 7 7 16 8 6 9 10 6 13 13 15 14 13 7 12 16 12 6 6 11 8 27 36 11 21 24 17 13 12 14 17 13 9 12 18 23 20 13 21 17 49 53 40 51
18 5 8 7 5 7 4 6 8 13 10 13 6 16 17 9 8 13 9 10 6 11 11 17 18 14 21 17 12 14 20 33 19 12 25 20 15 19 16 18 34 48 54 49 56
16 13 17 12 17 8 5 3 5 9 7 11 10 17 15 18 22 16 10 6 8 10 8 10 8 8 10 16 19 12 16 25 29 26 11 16 15 9 15 29 45 68 59 57 70
27 12 8 9 9 4 4 9 14 21 19 31 18 13 7 9 30 49 22 17 8 3 5 7 7 8 7 14 14 9 16 19 14 16 15 12 26 11 18 33 55 62 89 94 85
Wind_Direction_500mb
322 321 320 319 317 317 317 319 321 321 319 319 321 319 320 320 312 300 280 261 251 175 176 138 316 175 157 119 121 114 50 0 358 7 306 8 103 151 155 147 157 169 181 169 163
317 317 317 315 313 312 311 313 315 315 314 313 316 318 321 323 316 293 285 250 231 216 167 193 145 170 117 19 63 77 128 242 28 314 332 315 190 166 135 163 89 142 158 157 162
315 313 312 311 310 306 307 309 310 310 308 309 314 316 321 325 321 313 323 212 200 196 185 187 163 198 102 41 30 85 159 284 196 335 334 324 47 310 139 215 186 150 149 160 167
312 312 311 309 307 305 304 306 306 305 303 304 310 312 317 318 289 166 31 34 192 187 192 182 201 85 135 107 267 13 236 250 280 270 305 309 309 337 170 200 201 183 165 166 172
310 311 309 307 304 302 302 302 301 300 298 301 304 307 314 292 263 274 285 258 192 187 186 198 201 127 111 120 174 216 339 309 290 308 314 273 254 246 240 164 163 163 166 169 179
309 309 309 306 302 300 299 299 297 295 293 296 297 299 298 262 278 242 258 216 213 191 183 190 194 105 103 75 91 308 311 288 310 310 297 279 271 166 163 154 156 160 167 173 185
308 307 306 304 303 300 298 296 295 291 287 289 291 291 276 253 238 161 119 239 252 205 196 196 182 76 44 54 351 320 320 0 328 327 280 109 17 176 159 159 157 168 173 178 184
308 307 305 303 301 299 298 298 294 289 283 282 283 281 260 271 251 248 261 238 227 252 222 181 177 95 101 135 161 331 23 2 304 319 23 84 232 129 163 158 167 175 180 189 194
308 307 306 303 301 298 298 302 294 286 277 273 269 250 266 246 243 241 234 233 231 219 206 179 158 98 17 52 31 224 209 195 303 220 59 62 192 159 173 172 173 182 187 193 200
307 306 305 304 303 299 302 307 300 284 257 242 234 271 253 236 169 275 225 222 224 200 203 154 147 84 113 3 246 249 251 247 246 345 37 33 30 159 180 182 188 191 194 200 205
308 304 303 305 304 303 307 328 322 322 235 221 240 223 275 278 265 249 204 218 213 190 153 163 136 180 178 203 237 240 237 216 262 219 155 175 144 172 181 195 208 206 207 208 214
310 306 302 302 303 301 303 314 72 4 295 259 250 256 255 257 294 256 228 188 179 190 130 111 202 209 177 219 225 221 211 252 298 259 179 210 232 196 186 202 202 207 212 213 217
311 307 302 301 300 298 293 293 278 317 237 271 246 244 246 240 231 254 207 200 166 181 171 170 208 213 153 176 165 255 179 200 212 278 55 50 299 208 214 207 206 212 215 218 216
312 307 304 303 301 286 303 172 319 305 349 269 220 244 209 193 251 233 224 195 183 197 134 213 210 189 144 160 158 204 211 181 73 67 93 86 280 276 214 203 201 208 210 219 219
314 306 300 299 285 286 285 306 312 156 319 219 204 249 183 169 167 209 213 193 176 158 123 231 173 160 158 190 155 201 185 161 134 117 148 173 111 270 134 202 223 216 213 215 220
313 308 296 291 280 291 272 300 151 44 253 314 152 139 136 194 179 170 164 192 204 130 34 174 280 189 192 100 208 135 124 329 73 93 27 207 157 286 193 210 246 214 220 214 215
314 305 289 278 268 268 311 323 54 166 326 318 336 151 210 190 199 164 137 143 161 125 151 18 228 296 147 98 350 101 77 5 28 22 231 24 107 248 275 243 230 215 211 212 211
318 303 281 268 261 254 279 61 178 251 258 300 321 258 157 146 234 167 118 188 247 129 132 157 248 190 179 182 178 69 129 151 181 170 258 74 237 251 269 287 262 218 204 207 210
323 309 284 261 228 209 178 118 203 214 304 345 327 49 357 47 169 141 191 199 195 171 174 155 243 96 169 151 135 229 214 164 100 17 95 267 287 298 305 32 49 137 172 189 207
330 318 300 241 188 173 98 232 226 217 343 359 27 43 348 344 338 170 176 205 212 184 172 211 180 214 152 105 51 168 152 111 353 143 228 274 282 242 235 126 100 97 126 144 173
338 343 343 149 153 158 168 226 251 282 2 5 357 322 302 293 216 196 207 255 197 206 177 146 132 254 116 188 163 119 121 74 190 151 166 191 257 212 234 162 145 130 143 146 152
359 34 79 137 84 124 173 197 253 301 18 316 236 219 212 263 297 263 203 213 202 162 170 199 158 182 207 32 72 110 157 131 138 241 235 248 257 246 227 206 168 170 161 155 147
356 1 158 310 99 316 309 289 221 251 264 245 272 213 173 256 330 213 196 212 277 178 185 175 197 91 10 358 87 178 201 176 131 109 204 171 259 5 9 318 189 143 152 152 141
7 20 93 229 290 69 6 275 246 273 248 212 230 236 270 271 197 277 227 265 333 217 247 173 146 183 204 199 153 176 188 190 148 152 200 222 245 255 268 270 154 151 150 130 122
11 23 12 327 336 353 269 293 323 357 308 257 282 219 195 261 233 225 236 318 311 332 31 149 178 169 215 179 176 182 176 188 200 194 205 217 214 259 256 161 148 133 129 127 126
14 4 347 297 298 315 358 6 317 331 266 280 223 266 202 211 205 237 171 203 225 331 53 335 208 134 163 187 181 196 221 179 201 205 201 222 237 188 126 138 149 142 138 134 134
357 333 307 291 334 348 161 349 327 321 273 251 295 288 241 213 269 251 222 175 158 179 326 82 113 131 196 111 97 321 215 192 205 223 184 196 229 161 153 165 167 157 155 157 152
Wind_Speed_850mb
22 23 23 24 26 28 29 30 28 29 30 30 30 31 32 32 32 33 37 21 9 8 11 1 4 7 9 7 7 3 6 4 11 17 15 15 7 27 15 46 17 19 25 51 68
26 27 27 27 28 29 30 31 30 30 31 31 31 31 33 34 35 33 25 23 20 13 12 11 6 21 9 7 6 8 5 2 5 14 16 18 14 41 15 34 3 17 19 77 75
29 29 30 31 30 31 32 31 32 31 31 31 31 31 31 31 32 5 4 15 25 24 13 11 12 12 11 6 8 3 2 6 3 13 27 20 5 13 42 11 23 61 74 84 80
32 32 33 34 34 34 33 33 33 32 32 32 30 31 29 24 7 3 11 2 25 25 14 19 11 7 7 10 4 5 18 15 14 10 13 14 20 3 21 16 41 56 88 90 86
35 35 34 35 36 36 35 34 34 33 33 32 29 30 27 15 33 19 23 10 20 26 22 23 12 11 6 7 6 6 7 30 26 36 32 27 29 10 18 22 43 68 85 86 84
37 38 38 38 38 38 37 36 34 34 34 32 29 28 22 13 17 10 5 12 18 26 28 22 8 12 18 6 7 17 30 28 33 51 24 14 5 30 21 46 62 75 75 75 77
39 39 38 40 41 42 40 37 36 34 34 32 29 28 30 48 14 16 0 11 17 23 29 24 12 12 13 10 21 17 17 22 23 16 5 28 5 5 44 54 67 63 67 67 66
41 41 40 40 42 44 42 38 38 36 34 30 27 25 30 35 31 47 31 30 30 23 27 18 18 8 12 6 4 2 4 9 10 17 6 11 11 10 53 59 52 57 62 67 74
41 42 42 42 43 45 43 38 39 36 31 25 22 18 29 18 31 35 39 36 25 27 28 19 22 7 11 6 5 9 7 7 13 2 4 5 3 20 51 47 48 54 59 67 79
41 42 42 42 43 47 41 38 36 30 23 17 21 9 37 12 8 7 35 37 28 24 30 23 12 8 7 3 8 13 6 4 7 5 10 5 8 21 41 42 44 51 58 64 77
44 42 42 41 42 45 41 25 13 3 10 18 13 25 24 5 16 17 9 28 35 18 13 24 10 19 33 31 37 32 7 6 7 6 7 5 8 21 34 34 32 44 53 66 76
45 46 43 38 41 41 39 19 10 13 24 36 44 58 61 48 23 32 18 15 14 14 14 8 16 31 24 42 38 28 22 12 8 9 10 8 11 19 32 48 56 56 58 70 79
45 46 45 39 39 38 28 11 8 35 12 26 49 54 60 35 32 55 20 18 9 13 12 14 10 9 19 16 11 3 16 11 9 5 6 3 13 9 19 50 59 65 74 66 83
42 43 45 39 27 15 17 4 25 25 5 15 12 21 36 31 14 48 41 17 8 22 14 10 10 12 9 13 15 7 12 6 8 9 2 9 9 11 10 30 41 63 66 82 81
46 42 41 37 32 30 13 23 22 13 6 6 9 2 29 35 12 25 42 24 16 11 13 11 12 21 11 11 14 12 6 8 8 9 7 3 5 13 8 14 31 48 76 82 87
48 45 45 37 40 24 15 11 13 10 13 12 11 8 13 16 13 11 20 28 35 12 6 11 3 7 15 6 2 10 7 4 7 7 5 7 11 13 6 11 15 48 74 78 77
52 43 45 42 32 9 11 5 8 7 11 10 2 9 7 9 12 10 11 11 14 11 6 6 4 5 2 8 8 7 9 6 9 7 10 6 8 18 19 16 20 38 70 78 81
53 43 38 42 27 23 8 8 8 7 13 11 9 3 16 10 11 12 12 9 5 9 8 12 5 16 10 11 12 2 8 10 13 10 7 5 8 12 9 40 39 53 62 53 56
51 39 32 26 27 25 12 5 16 13 9 15 17 12 12 3 10 9 16 14 17 17 18 12 12 2 13 10 17 7 7 1 13 10 5 6 14 16 10 10 10 31 42 48 55
53 33 13 14 26 39 8 11 10 9 11 10 10 8 10 9 4 15 16 12 13 21 12 16 5 9 8 14 11 14 12 4 5 10 8 8 10 10 11 6 14 18 38 44 42
28 14 20 23 43 30 9 14 10 22 10 10 6 8 6 8 9 9 17 11 17 14 21 13 10 8 10 10 18 5 9 6 1 7 10 5 12 16 15 14 15 13 36 57 52
14 6 10 55 9 5 6 13 2 4 3 7 6 18 13 8 9 10 19 14 25 19 19 20 13 10 12 5 7 6 11 13 10 12 6 2 14 9 20 17 32 45 44 45 56
20 11 21 2 5 4 11 7 10 10 19 9 7 8 2 5 6 15 9 10 9 13 20 14 5 7 8 10 6 8 11 11 8 7 15 12 17 3 12 13 31 41 47 57 58
14 7 7 16 8 6 9 10 6 13 13 15 14 13 7 12 16 12 6 6 11 8 27 36 11 21 24 17 13 12 14 17 13 9 12 18 23 20 13 21 17 49 53 40 51
18 5 8 7 5 7 4 6 8 13 10 13 6 16 17 9 8 13 9 10 6 11 11 17 18 14 21 17 12 14 20 33 19 12 25 20 15 19 16 18 34 48 54 49 56
16 13 17 12 17 8 5 3 5 9 7 11 10 17 15 18 22 16 10 6 8 10 8 10 8 8 10 16 19 12 16 25 29 26 11 16 15 9 15 29 45 68 59 57 70
27 12 8 9 9 4 4 9 14 21 19 31 18 13 7 9 30 49 22 17 8 3 5 7 7 8 7 14 14 9 16 19 14 16 15 12 26 11 18 33 55 62 89 94 85
Wind_Direction_850mb
322 321 320 319 317 317 317 319 321 321 319 319 321 319 320 320 312 300 280 261 251 175 176 138 316 175 157 119 121 114 50 0 358 7 306 8 103 151 155 147 157 169 181 169 163
317 317 317 315 313 312 311 313 315 315 314 313 316 318 321 323 316 293 285 250 231 216 167 193 145 170 117 19 63 77 128 242 28 314 332 315 190 166 135 163 89 142 158 157 162
315 313 312 311 310 306 307 309 310 310 308 309 314 316 321 325 321 313 323 212 200 196 185 187 163 198 102 41 30 85 159 284 196 335 334 324 47 310 139 215 186 150 149 160 167
312 312 311 309 307 305 304 306 306 305 303 304 310 312 317 318 289 166 31 34 192 187 192 182 201 85 135 107 267 13 236 250 280 270 305 309 309 337 170 200 201 183 165 166 172
310 311 309 307 304 302 302 302 301 300 298 301 304 307 314 292 263 274 285 258 192 187 186 198 201 127 111 120 174 216 339 309 290 308 314 273 254 246 240 164 163 163 166 169 179
309 309 309 306 302 300 299 299 297 295 293 296 297 299 298 262 278 242 258 216 213 191 183 190 194 105 103 75 91 308 311 288 310 310 297 279 271 166 163 154 156 160 167 173 185
308 307 306 304 303 300 298 296 295 291 287 289 291 291 276 253 238 161 119 239 252 205 196 196 182 76 44 54 351 320 320 0 328 327 280 109 17 176 159 159 157 168 173 178 184
308 307 305 303 301 299 298 298 294 289 283 282 283 281 260 271 251 248 261 238 227 252 222 181 177 95 101 135 161 331 23 2 304 319 23 84 232 129 163 158 167 175 180 189 194
308 307 306 303 301 298 298 302 294 286 277 273 269 250 266 246 243 241 234 233 231 219 206 179 158 98 17 52 31 224 209 195 303 220 59 62 192 159 173 172 173 182 187 193 200
307 306 305 304 303 299 302 307 300 284 257 242 234 271 253 236 169 275 225 222 224 200 203 154 147 84 113 3 246 249 251 247 246 345 37 33 30 159 180 182 188 191 194 200 205
308 304 303 305 304 303 307 328 322 322 235 221 240 223 275 278 265 249 204 218 213 190 153 163 136 180 178 203 237 240 237 216 262 219 155 175 144 172 181 195 208 206 207 208 214
310 306 302 302 303 301 303 314 72 4 295 259 250 256 255 257 294 256 228 188 179 190 130 111 202 209 177 219 225 221 211 252 298 259 179 210 232 196 186 202 202 207 212 213 217
311 307 302 301 300 298 293 293 278 317 237 271 246 244 246 240 231 254 207 200 166 181 171 170 208 213 153 176 165 255 179 200 212 278 55 50 299 208 214 207 206 212 215 218 216
312 307 304 303 301 286 303 172 319 305 349 269 220 244 209 193 251 233 224 195 183 197 134 213 210 189 144 160 158 204 211 181 73 67 93 86 280 276 214 203 201 208 210 219 219
314 306 300 299 285 286 285 306 312 156 319 219 204 249 183 169 167 209 213 193 176 158 123 231 173 160 158 190 155 201 185 161 134 117 148 173 111 270 134 202 223 216 213 215 220
313 308 296 291 280 291 272 300 151 44 253 314 152 139 136 194 179 170 164 192 204 130 34 174 280 189 192 100 208 135 124 329 73 93 27 207 157 286 193 210 246 214 220 214 215
314 305 289 278 268 268 311 323 54 166 326 318 336 151 210 190 199 164 137 143 161 125 151 18 228 296 147 98 350 101 77 5 28 22 231 24 107 248 275 243 230 215 211 212 211
318 303 281 268 261 254 279 61 178 251 258 300 321 258 157 146 234 167 118 188 247 129 132 157 248 190 179 182 178 69 129 151 181 170 258 74 237 251 269 287 262 218 204 207 210
323 309 284 261 228 209 178 118 203 214 304 345 327 49 357 47 169 141 191 199 195 171 174 155 243 96 169 151 135 229 214 164 100 17 95 267 287 298 305 32 49 137 172 189 207
330 318 300 241 188 173 98 232 226 217 343 359 27 43 348 344 338 170 176 205 212 184 172 211 180 214 152 105 51 168 152 111 353 143 228 274 282 242 235 126 100 97 126 144 173
338 343 343 149 153 158 168 226 251 282 2 5 357 322 302 293 216 196 207 255 197 206 177 146 132 254 116 188 163 119 121 74 190 151 166 191 257 212 234 162 145 130 143 146 152
359 34 79 137 84 124 173 197 253 301 18 316 236 219 212 263 297 263 203 213 202 162 170 199 158 182 207 32 72 110 157 131 138 241 235 248 257 246 227 206 168 170 161 155 147
356 1 158 310 99 316 309 289 221 251 264 245 272 213 173 256 330 213 196 212 277 178 185 175 197 91 10 358 87 178 201 176 131 109 204 171 259 5 9 318 189 143 152 152 141
7 20 93 229 290 69 6 275 246 273 248 212 230 236 270 271 197 277 227 265 333 217 247 173 146 183 204 199 153 176 188 190 148 152 200 222 245 255 268 270 154 151 150 130 122
11 23 12 327 336 353 269 293 323 357 308 257 282 219 195 261 233 225 236 318 311 332 31 149 178 169 215 179 176 182 176 188 200 194 205 217 214 259 256 161 148 133 129 127 126
14 4 347 297 298 315 358 6 317 331 266 280 223 266 202 211 205 237 171 203 225 331 53 335 208 134 163 187 181 196 221 179 201 205 201 222 237 188 126 138 149 142 138 134 134
357 333 307 291 334 348 161 349 327 321 273 251 295 288 241 213 269 251 222 175 158 179 326 82 113 131 196 111 97 321 215 192 205 223 184 196 229 161 153 165 167 157 155 157 152